Weather History for Billings, MT

Change the Weather History Date:

Thursday, March 1, 2012

  Actual Average Record
Temperature  
Mean Temperature 34 °F 34 °F  
Max Temperature 42 °F 44 °F 67 °F (1992)
Min Temperature 25 °F 23 °F -18 °F (2014)
Degree Days  
Heating Degree Days 31 31  
Month to date heating degree days 31 31  
Since 1 July heating degree days 4539 4996  
Cooling Degree Days 0 0  
Month to date cooling degree days 0 0  
Year to date cooling degree days 0 0  
Moisture  
Dew Point 9 °F    
Average Humidity 47    
Maximum Humidity 75    
Minimum Humidity 18    
Precipitation  
Precipitation T in 0.02 in 0.61 in (1985)
Month to date precipitation T 0.02  
Year to date precipitation 0.85 0.98  
Snow  
Snow T in 0.30 in 8.20 in (1985)
Month to date snowfall T 0.3  
Since 1 July snowfall 28.8 34.8  
Snow Depth 0.00 in    
Sea Level Pressure  
Sea Level Pressure 29.78 in    
Wind  
Wind Speed 16 mph (WNW)    
Max Wind Speed 26 mph    
Max Gust Speed 35 mph    
Visibility 10 miles    
Events      
T = Trace of Precipitation, MM = Missing Value Source: NWS Daily Summary

Daily Weather History Graph

Daily Weather History Graph

Search for Another Location

Airport:

Trip Planner

Search our weather history database for the weather conditions in past years. The results will help you decide how hot, cold, wet, or windy it might be!

Date:

Astronomy

Mar. 01, 2012 Rise Set
Actual Time 6:51 AM MST 6:01 PM MST
Civil Twilight 6:21 AM MST 6:31 PM MST
Nautical Twilight 5:47 AM MST 7:06 PM MST
Astronomical Twilight 5:13 AM MST 7:40 PM MST
Moon 11:09 AM MST (3/1) 2:07 AM MST (3/1)
Length of Visible Light 12h 09m
Length of Day
11h 09m
First Quarter, 57% of the Moon is Illuminated
Mar 1
First Quarter
Mar 8
Full
Mar 14
Last Quarter
Mar 22
New
Mar 30
First Quarter

Hourly Weather History & Observations

Time (MST) Temp. Windchill Dew Point Humidity Pressure Visibility Wind Dir Wind Speed Gust Speed Precip Events Conditions
12:53 AM 32.0 °F 20.5 °F 12.9 °F 45% 29.72 in 10.0 mi West 18.4 mph - N/A   Scattered Clouds
1:53 AM 30.9 °F 18.7 °F 10.0 °F 42% 29.72 in 10.0 mi West 19.6 mph - N/A   Partly Cloudy
2:53 AM 30.0 °F 16.6 °F 10.0 °F 43% 29.72 in 10.0 mi West 23.0 mph 34.5 mph N/A   Clear
3:53 AM 27.0 °F 16.7 °F 10.9 °F 51% 29.73 in 10.0 mi WSW 11.5 mph - N/A   Clear
4:53 AM 26.6 °F 14.3 °F 10.4 °F 51% 29.68 in 10.0 mi WSW 16.1 mph - N/A   Clear
5:53 AM 27.0 °F 14.7 °F 9.0 °F 47% 29.75 in 10.0 mi WSW 16.1 mph - N/A   Partly Cloudy
6:53 AM 27.0 °F 14.7 °F 8.1 °F 45% 29.77 in 10.0 mi West 16.1 mph - N/A   Partly Cloudy
7:53 AM 28.0 °F 16.5 °F 7.0 °F 41% 29.77 in 10.0 mi WSW 15.0 mph - N/A   Partly Cloudy
8:53 AM 32.0 °F 21.2 °F 7.0 °F 35% 29.76 in 10.0 mi WSW 16.1 mph - N/A   Partly Cloudy
9:53 AM 34.0 °F 23.8 °F 8.1 °F 34% 29.75 in 10.0 mi WSW 16.1 mph - N/A   Partly Cloudy
10:53 AM 37.9 °F 27.9 °F 1.9 °F 22% 29.73 in 10.0 mi West 19.6 mph - N/A   Partly Cloudy
11:53 AM 39.0 °F 29.0 °F 1.9 °F 21% 29.72 in 10.0 mi West 20.7 mph 25.3 mph N/A   Partly Cloudy
12:53 PM 41.0 °F 31.9 °F 3.0 °F 21% 29.69 in 10.0 mi West 19.6 mph 26.5 mph N/A   Partly Cloudy
1:53 PM 41.0 °F 32.8 °F 1.9 °F 20% 29.68 in 10.0 mi WNW 16.1 mph - N/A   Mostly Cloudy
2:53 PM 39.0 °F 29.6 °F -0.0 °F 19% 29.70 in 10.0 mi NW 18.4 mph 23.0 mph N/A   Mostly Cloudy
3:53 PM 37.9 °F 27.6 °F 5.0 °F 25% 29.75 in 10.0 mi NW 20.7 mph 28.8 mph N/A   Mostly Cloudy
4:53 PM 36.0 °F 25.3 °F 9.0 °F 33% 29.79 in 10.0 mi NW 19.6 mph - N/A   Mostly Cloudy
5:53 PM 34.0 °F 25.0 °F 8.1 °F 34% 29.81 in 10.0 mi NW 12.7 mph - N/A   Mostly Cloudy
6:53 PM 30.0 °F 21.1 °F 10.9 °F 45% 29.85 in 10.0 mi NW 10.4 mph - N/A   Scattered Clouds
7:53 PM 30.0 °F 21.7 °F 12.0 °F 47% 29.87 in 10.0 mi NW 9.2 mph - N/A   Mostly Cloudy
8:53 PM 30.0 °F 18.7 °F 12.9 °F 49% 29.89 in 10.0 mi NW 16.1 mph - N/A   Mostly Cloudy
9:53 PM 28.0 °F 18.1 °F 18.0 °F 66% 29.92 in 10.0 mi NW 11.5 mph - 0.00 in   Scattered Clouds
10:53 PM 27.0 °F 19.5 °F 19.9 °F 75% 29.94 in 10.0 mi NNW 6.9 mph - N/A   Overcast
11:53 PM 26.1 °F 18.4 °F 19.0 °F 75% 29.96 in 10.0 mi WNW 6.9 mph - N/A   Overcast